Location: State Camp
(41.2367°N, 77.7828°W)
Time: 11:46:18
(UTC-04:00)

Amateur Radio Satellites - All Passes

Search period start: 30 June 2016 11:16
Search period end: 01 July 2016 11:16
Location: State Camp, 41.2367°N, 77.7828°W

Satellite Date Start Highest point End Downlink Frequencies (MHz)
Time Altitude Azimuth
JAS-2 30 Jun 11:16:35 11:21:05 18° 59° (ENE) 11:25:21 435.910
O/OREOS (USA 219) 30 Jun 11:20:48 11:22:53 13° 52° (NE) 11:24:58 437.305
NANOSAT C BR1 30 Jun 11:28:19 11:32:15 41° 71° (ENE) 11:36:13 145.865
PCSat 30 Jun 11:28:37 11:34:04 81° 60° (ENE) 11:39:29 145.827
AUBIESAT-1 30 Jun 11:29:38 11:32:58 26° 295° (WNW) 11:36:29 437.475
QB50P1 30 Jun 11:32:20 11:36:22 49° 73° (ENE) 11:40:26 145.935-145.965
TIGRISAT 30 Jun 11:35:23 11:39:01 27° 265° (W) 11:42:45 435.000
POPSAT HIP 1 30 Jun 11:35:43 11:39:46 53° 73° (ENE) 11:43:52 437.405
YUBILEINY 30 Jun 11:36:03 11:41:32 19° 77° (ENE) 11:47:03 435.215
ISS 30 Jun 11:40:40 11:42:25 13° 357° (N) 11:44:09 145.825
UNISAT 6 30 Jun 11:41:32 11:44:54 22° 266° (W) 11:48:20 437.425
HUMSAT D 30 Jun 11:44:05 11:48:24 71° 285° (WNW) 11:52:40 437.325/437.525
DUCHIFAT 1 30 Jun 11:47:42 11:51:50 66° 74° (ENE) 11:56:00 145.980
Cosmos 2491 30 Jun 11:48:11 11:56:45 56° 77° (ENE) 12:05:16 435.465 / 435.565
QB50P2 30 Jun 11:48:24 11:52:35 81° 76° (ENE) 11:56:49 145.880/145.840
POLYITAN 1 30 Jun 11:51:02 11:55:13 83° 76° (ENE) 11:59:26 437.675
BEESAT 3 30 Jun 11:51:28 11:55:21 55° 242° (WSW) 11:59:11 437.485
DELFI C3 30 Jun 11:57:15 12:00:21 22° 292° (WNW) 12:03:26 145.870
PHONESAT 2.4 30 Jun 11:58:03 11:59:47 14° 210° (SSW) 12:01:32 2401.200-2431.200
AISAT 30 Jun 12:02:50 12:06:01 19° 94° (E) 12:09:11 437.250
ESTCUBE 1 30 Jun 12:06:06 12:10:10 33° 97° (E) 12:14:12 437.505/2401.250
50 SAT 30 Jun 12:06:30 12:09:14 19° 94° (E) 12:11:57 437.505
DX 1 30 Jun 12:15:57 12:19:05 19° 94° (E) 12:22:13 434.975-435.025
Oscar 19 30 Jun 12:32:58 12:36:25 18° 63° (ENE) 12:39:53 437.125/150
BEESAT 2 30 Jun 12:33:25 12:37:05 35° 244° (WSW) 12:40:44 435.950
BUGSAT 1 30 Jun 12:35:35 12:39:35 77° 257° (WSW) 12:43:37 437.445
RS-15 30 Jun 12:42:56 12:54:23 82° 304° (WNW) 13:06:33 29.354- 29.394
CUBEBUG 1 30 Jun 12:43:52 12:48:09 58° 101° (E) 12:52:24 437.445
VELOX 1 30 Jun 12:57:09 13:01:34 73° 103° (ESE) 13:05:57 145.980
JAS-2 30 Jun 12:57:41 13:05:20 86° 75° (ENE) 13:12:16 435.910
O/OREOS (USA 219) 30 Jun 12:58:21 13:02:50 73° 250° (WSW) 13:07:18 437.305
NANOSAT C BR1 30 Jun 13:05:36 13:08:10 16° 268° (W) 13:10:46 145.865
Gurwin Techsat 1B 30 Jun 13:06:02 13:09:23 17° 61° (ENE) 13:12:44 435.225
QB50P1 30 Jun 13:10:18 13:12:25 14° 269° (W) 13:14:34 145.935-145.965
POPSAT HIP 1 30 Jun 13:14:01 13:15:52 13° 269° (W) 13:17:44 437.405
PCSat 30 Jun 13:14:10 13:16:42 13° 257° (WSW) 13:19:14 145.827
ISS 30 Jun 13:17:23 13:19:49 19° 17° (NNE) 13:22:16 145.825
Cosmos 2504 30 Jun 13:22:10 13:28:53 29° 82° (E) 13:35:55 435.465 / 435.565
SPROUT 30 Jun 13:24:58 13:29:15 66° 101° (ESE) 13:33:30 437.525
UKube-1 30 Jun 13:27:21 13:31:41 84° 285° (WNW) 13:36:00 .
YUBILEINY 30 Jun 13:28:22 13:37:05 87° 276° (W) 13:45:55 435.215
AIST 2 30 Jun 13:31:48 13:35:52 49° 54° (NE) 13:39:54 435.215
AISAT 30 Jun 13:38:33 13:42:36 38° 290° (WNW) 13:46:40 437.250
50 SAT 30 Jun 13:39:48 13:42:53 26° 290° (WNW) 13:45:57 437.505
ESTCUBE 1 30 Jun 13:43:14 13:46:48 24° 293° (WNW) 13:50:22 437.505/2401.250
Cosmos 2491 30 Jun 13:45:47 13:53:04 31° 277° (W) 14:00:22 435.465 / 435.565
DX 1 30 Jun 13:51:24 13:55:24 37° 290° (WNW) 13:59:22 434.975-435.025
Oscar 19 30 Jun 14:10:14 14:15:17 57° 259° (W) 14:20:21 437.125/150
CUBEBUG 1 30 Jun 14:21:48 14:23:57 14° 297° (WNW) 14:26:05 437.445
SWISSCUBE 30 Jun 14:28:04 14:31:12 17° 92° (E) 14:34:18 437.505
VELOX 1 30 Jun 14:35:59 14:37:25 11° 299° (WNW) 14:38:51 145.980
ITAMSAT 1 30 Jun 14:37:25 14:42:16 41° 69° (ENE) 14:47:09 435.822/435.867
TISAT 1 30 Jun 14:37:45 14:41:57 76° 285° (WNW) 14:46:10 437.305
AO-7 30 Jun 14:38:37 14:45:45 33° 57° (ENE) 14:52:54 29.400- 29.500
Gurwin Techsat 1B 30 Jun 14:43:30 14:48:46 66° 258° (WSW) 14:54:05 435.225
JAS-2 30 Jun 14:46:08 14:50:53 18° 270° (W) 14:55:25 435.910
BEESAT 30 Jun 14:52:22 14:56:27 27° 96° (E) 15:00:29 436.000
ISS 30 Jun 14:53:23 14:56:39 84° 36° (NE) 14:59:56 145.825
ITUPSAT 1 30 Jun 14:54:46 14:58:55 28° 96° (E) 15:03:01 437.325
RS-15 30 Jun 14:58:55 15:09:01 32° 332° (NNW) 15:19:33 29.354- 29.394
SPROUT 30 Jun 15:03:01 15:04:38 12° 298° (WNW) 15:06:15 437.525
SO-50 30 Jun 15:07:00 15:11:07 27° 113° (ESE) 15:15:13 436.795
AIST 2 30 Jun 15:11:26 15:13:56 16° 250° (WSW) 15:16:25 435.215
Cosmos 2504 30 Jun 15:13:32 15:21:35 61° 282° (WNW) 15:30:14 435.465 / 435.565
YUBILEINY 30 Jun 15:29:39 15:35:16 18° 299° (WNW) 15:40:57 435.215
SWISSCUBE 30 Jun 16:04:37 16:09:16 50° 289° (WNW) 16:13:52 437.505
ITAMSAT 1 30 Jun 16:17:39 16:21:51 25° 265° (W) 16:26:05 435.822/435.867
AIST 1 30 Jun 16:26:48 16:29:42 18° 87° (E) 16:32:36
AO-7 30 Jun 16:29:51 16:38:02 60° 256° (WSW) 16:46:19 29.400- 29.500
BEESAT 30 Jun 16:29:58 16:34:13 32° 292° (WNW) 16:38:25 436.000
ISS 30 Jun 16:31:48 16:32:38 11° 231° (SW) 16:33:27 145.825
ITUPSAT 1 30 Jun 16:32:30 16:36:43 31° 292° (WNW) 16:40:54 437.325
KKS-1 30 Jun 16:43:27 16:47:45 46° 99° (E) 16:52:01 437.445
SO-50 30 Jun 16:46:51 16:51:26 39° 310° (NW) 16:56:02 436.795
MOZHAYETS 4 30 Jun 16:49:22 16:53:55 51° 99° (E) 16:58:24
Cubesat XI-IV 30 Jun 17:03:09 17:05:10 12° 57° (ENE) 17:07:12 437.490
HORYU 2 30 Jun 17:06:30 17:10:54 73° 74° (ENE) 17:15:22 437.375
STARS 30 Jun 17:09:39 17:13:53 44° 99° (E) 17:18:06 437.465
NOAA 18 30 Jun 17:13:40 17:17:13 18° 60° (ENE) 17:20:48 137.9125
Cosmos 2504 30 Jun 17:14:16 17:17:09 12° 306° (NW) 17:20:05 435.465 / 435.565
RS-15 30 Jun 17:17:53 17:26:56 23° 7° (N) 17:36:09 29.354- 29.394
GONETS M04 30 Jun 17:32:41 17:39:19 25° 81° (E) 17:45:56
CUTE-I 30 Jun 17:34:16 17:38:25 23° 64° (ENE) 17:42:34 437.470
CUSAT 1 30 Jun 17:50:41 17:51:59 12° 64° (ENE) 17:53:11 437.405
Cosmos 2499 30 Jun 17:52:46 17:58:50 23° 79° (E) 18:05:07 435.465 / 435.565
NOAA 15 30 Jun 17:54:07 17:59:09 47° 70° (ENE) 18:04:12 137.62
AIST 1 30 Jun 18:03:01 18:07:00 36° 283° (WNW) 18:10:59
BRITE-PL 30 Jun 18:19:41 18:24:42 75° 75° (ENE) 18:29:18 437.365/2234.400
KKS-1 30 Jun 18:21:01 18:23:57 18° 296° (WNW) 18:26:54 437.445
CUBESAT XI-V 30 Jun 18:22:57 18:27:31 58° 100° (E) 18:32:02 437.345
MOZHAYETS 4 30 Jun 18:27:40 18:30:39 17° 296° (WNW) 18:33:38
DANDE 30 Jun 18:32:56 18:36:16 19° 63° (ENE) 18:39:03 436.750
Cubesat XI-IV 30 Jun 18:39:03 18:44:24 85° 75° (ENE) 18:49:49 437.490
GOMX 1 30 Jun 18:42:14 18:46:42 56° 74° (ENE) 18:50:56 467.674
LilacSat-2 30 Jun 18:44:01 18:47:48 85° 258° (WSW) 18:51:38 437.200
STARS 30 Jun 18:46:56 18:49:54 18° 295° (WNW) 18:52:52 437.465
HORYU 2 30 Jun 18:47:31 18:47:57 10° 271° (W) 18:48:24 437.375
NOAA 18 30 Jun 18:51:53 18:57:18 67° 257° (WSW) 19:02:48 137.9125
STRAND 1 30 Jun 19:04:04 19:04:31 10° 88° (E) 19:04:59 437.568
CUTE 1.7 + AOD 2 30 Jun 19:10:26 19:12:19 13° 63° (ENE) 19:14:13 437.475
CUTE-I 30 Jun 19:13:00 19:18:08 47° 261° (W) 19:23:19 437.470
HO-68 30 Jun 19:20:46 19:27:06 35° 62° (ENE) 19:33:27 435.675
GONETS M04 30 Jun 19:26:40 19:35:19 68° 281° (W) 19:44:00
DOVE 4 30 Jun 19:31:02 19:35:21 85° 75° (ENE) 19:39:31 437.250
CUSAT 1 30 Jun 19:31:32 19:34:16 23° 271° (W) 19:36:36 437.405
RS-15 30 Jun 19:32:27 19:44:00 43° 40° (NE) 19:55:31 29.354- 29.394
NOAA 15 30 Jun 19:35:07 19:39:09 22° 266° (W) 19:43:11 137.62
Cosmos 2499 30 Jun 19:42:32 19:50:54 77° 280° (W) 19:59:48 435.465 / 435.565
AAUSAT CUBESAT 2 30 Jun 19:43:14 19:44:36 11° 63° (ENE) 19:45:59 437.432
CUBEBUG 2 30 Jun 19:53:44 19:55:35 13° 62° (ENE) 19:57:28 437.445
CUBESAT XI-V 30 Jun 20:01:47 20:04:24 15° 297° (WNW) 20:07:01 437.345
BRITE-PL 30 Jun 20:02:08 20:03:33 11° 270° (W) 20:04:57 437.365/2234.400
CINEMA 3 30 Jun 20:09:46 20:13:51 62° 75° (ENE) 20:17:59 145.822/145.860
DANDE 30 Jun 20:15:23 20:19:16 28° 273° (W) 20:22:21 436.750
Oscar 11 30 Jun 20:15:44 20:17:01 11° 62° (ENE) 20:18:19 145.826/435.025
COMPASS 1 30 Jun 20:16:55 20:20:41 33° 71° (ENE) 20:24:29 437.405
GOMX 1 30 Jun 20:23:00 20:25:04 13° 268° (W) 20:27:06 467.674
Cubesat XI-IV 30 Jun 20:23:23 20:25:08 11° 272° (W) 20:26:53 437.490
CANX-2 30 Jun 20:23:46 20:28:04 89° 271° (W) 20:32:24 2200.000
FUNcube-1 30 Jun 20:26:07 20:27:53 12° 62° (ENE) 20:29:38 145.935
UWE-3 30 Jun 20:34:22 20:37:45 24° 67° (ENE) 20:41:12 435.000/436.395/437.385
AO-85 30 Jun 20:37:47 20:42:18 27° 112° (ESE) 20:46:44 145.980
STRAND 1 30 Jun 20:39:11 20:44:23 89° 286° (WNW) 20:49:31 437.568
AUBIESAT-1 30 Jun 20:42:05 20:44:55 27° 65° (ENE) 20:47:49 437.475
SEEDS 30 Jun 20:42:58 20:47:13 87° 251° (WSW) 20:51:30 437.485
CUTE 1.7 + AOD 2 30 Jun 20:43:23 20:47:37 62° 259° (W) 20:51:54 437.475
HO-68 30 Jun 21:07:49 21:14:37 46° 261° (W) 21:21:29 435.675
DELFI C3 30 Jun 21:08:44 21:11:25 18° 66° (ENE) 21:14:08 145.870
AAUSAT CUBESAT 2 30 Jun 21:15:21 21:19:31 67° 259° (W) 21:23:43 437.432
M-CUBED/EXP-1 PRIME 30 Jun 21:23:10 21:26:22 59° 254° (WSW) 21:29:38 437.505
CUBEBUG 2 30 Jun 21:27:33 21:31:40 59° 260° (W) 21:35:55 437.445
GONETS M04 30 Jun 21:30:09 21:33:59 13° 303° (WNW) 21:37:52
Cosmos 2499 30 Jun 21:40:38 21:45:41 17° 301° (WNW) 21:50:52 435.465 / 435.565
ZACube-1 30 Jun 21:43:05 21:47:18 90° 160° (SSE) 21:51:39 437.345
RS-15 30 Jun 21:45:10 21:57:23 70° 245° (WSW) 22:09:26 29.354- 29.394
Oscar 11 30 Jun 21:48:12 21:52:31 73° 258° (WSW) 21:56:54 145.826/435.025
CINEMA 3 30 Jun 21:51:04 21:51:27 10° 271° (W) 21:51:49 145.822/145.860
COMPASS 1 30 Jun 21:53:08 21:56:18 21° 266° (W) 21:59:30 437.405
PRISM 30 Jun 21:58:42 22:02:48 78° 284° (WNW) 22:06:51 437.425
FUNcube-1 30 Jun 21:59:23 22:03:32 63° 259° (W) 22:07:51 145.935
UWE-3 30 Jun 22:10:25 22:14:04 29° 264° (W) 22:17:50 435.000/436.395/437.385
AO-85 30 Jun 22:17:24 22:22:37 46° 308° (NW) 22:27:39 145.980
AUBIESAT-1 30 Jun 22:17:35 22:19:31 15° 261° (W) 22:21:28 437.475
STRAND 1 30 Jun 22:20:51 22:22:45 12° 302° (WNW) 22:24:40 437.568
HUMSAT D 30 Jun 22:34:52 22:39:02 78° 77° (ENE) 22:43:17 437.325/437.525
ANTELSAT 30 Jun 22:35:45 22:39:08 19° 93° (E) 22:42:31 437.575/2403.000
DELFI C3 30 Jun 22:42:15 22:46:00 37° 262° (W) 22:49:46 145.870
50 SAT 30 Jun 22:46:50 22:47:13 10° 63° (ENE) 22:47:36 437.505
AISAT 30 Jun 23:00:35 23:03:35 18° 65° (ENE) 23:06:37 437.250
Cosmos 2491 30 Jun 23:00:43 23:02:30 11° 72° (ENE) 23:04:18 435.465 / 435.565
ESTCUBE 1 30 Jun 23:05:33 23:09:32 31° 69° (ENE) 23:13:32 437.505/2401.250
DX 1 30 Jun 23:11:51 23:14:47 18° 65° (ENE) 23:17:43 434.975-435.025
Cosmos 2504 30 Jun 23:17:16 23:19:03 11° 53° (NE) 23:20:49 435.465 / 435.565
TIGRISAT 30 Jun 23:25:41 23:30:19 61° 101° (E) 23:34:57 435.000
UNISAT 6 30 Jun 23:31:38 23:36:19 75° 101° (ESE) 23:41:02 437.425
DUCHIFAT 1 30 Jun 23:34:37 23:35:22 10° 90° (E) 23:36:06 145.980
QB50P2 30 Jun 23:34:59 23:37:02 13° 91° (E) 23:39:06 145.880/145.840
POLYITAN 1 30 Jun 23:37:32 23:39:41 14° 91° (E) 23:41:51 437.675
SO-50 30 Jun 23:38:10 23:42:07 26° 45° (NE) 23:45:57 436.795
YUBILEINY 30 Jun 23:38:41 23:47:11 48° 75° (ENE) 23:55:37 435.215
CUBEBUG 1 30 Jun 23:39:36 23:43:47 47° 72° (ENE) 23:47:56 437.445
VELOX 1 30 Jun 23:54:09 23:58:30 64° 73° (ENE) 00:02:52 145.980
RS-15 01 Jul 00:01:23 00:07:27 15° 265° (W) 00:13:31 29.354- 29.394
AO-85 01 Jul 00:03:15 00:04:20 11° 328° (NNW) 00:05:24 145.980
ANTELSAT 01 Jul 00:11:35 00:16:00 43° 289° (WNW) 00:20:26 437.575/2403.000
50 SAT 01 Jul 00:16:43 00:20:23 59° 259° (W) 00:24:05 437.505
SPROUT 01 Jul 00:18:19 00:22:24 48° 73° (ENE) 00:26:31 437.525
BUGSAT 1 01 Jul 00:18:31 00:20:52 15° 92° (E) 00:23:15 437.445
UKube-1 01 Jul 00:21:30 00:25:48 80° 75° (ENE) 00:30:08 .
AISAT 01 Jul 00:35:35 00:39:45 42° 261° (W) 00:43:56 437.250
ESTCUBE 1 01 Jul 00:42:36 00:46:20 25° 265° (W) 00:50:06 437.505/2401.250
DX 1 01 Jul 00:46:32 00:50:39 42° 261° (W) 00:54:47 434.975-435.025
NANOSAT C BR1 01 Jul 00:47:54 00:52:10 80° 104° (ESE) 00:56:25 145.865
Cosmos 2491 01 Jul 00:48:52 00:57:29 65° 92° (E) 01:06:06 435.465 / 435.565
QB50P1 01 Jul 00:52:24 00:56:41 86° 284° (WNW) 01:00:58 145.935-145.965
POPSAT HIP 1 01 Jul 00:55:52 01:00:10 81° 284° (WNW) 01:04:25 437.405
TIGRISAT 01 Jul 01:03:50 01:06:30 15° 297° (WNW) 01:09:09 435.000
Cosmos 2504 01 Jul 01:06:06 01:14:48 55° 76° (ENE) 01:23:04 435.465 / 435.565
DUCHIFAT 1 01 Jul 01:07:16 01:11:28 66° 286° (WNW) 01:15:41 145.980
QB50P2 01 Jul 01:08:59 01:13:09 53° 287° (WNW) 01:17:18 145.880/145.840
UNISAT 6 01 Jul 01:10:26 01:12:25 13° 298° (WNW) 01:14:25 437.425
POLYITAN 1 01 Jul 01:11:37 01:15:47 52° 287° (WNW) 01:19:57 437.675
CUBEBUG 1 01 Jul 01:17:45 01:20:17 15° 268° (W) 01:22:51 437.445
SO-50 01 Jul 01:18:23 01:22:43 40° 244° (WSW) 01:26:55 436.795
TISAT 1 01 Jul 01:29:01 01:33:10 78° 75° (ENE) 01:37:21 437.305
VELOX 1 01 Jul 01:33:51 01:35:22 12° 270° (W) 01:36:53 145.980
O/OREOS (USA 219) 01 Jul 01:34:11 01:36:04 12° 98° (E) 01:37:55 437.305
SWISSCUBE 01 Jul 01:34:30 01:38:03 21° 65° (ENE) 01:41:37 437.505
YUBILEINY 01 Jul 01:35:52 01:43:44 38° 274° (W) 01:51:36 435.215
BEESAT 3 01 Jul 01:42:31 01:45:37 23° 113° (ESE) 01:48:45 437.485
BUGSAT 1 01 Jul 01:52:33 01:56:28 44° 288° (WNW) 02:00:24 437.445
JAS-2 01 Jul 01:53:19 01:58:53 74° 102° (ESE) 02:04:04 435.910
SPROUT 01 Jul 01:56:21 01:58:37 14° 269° (W) 02:00:53 437.525
BEESAT 01 Jul 01:58:40 02:02:53 32° 68° (ENE) 02:07:07 436.000
ITUPSAT 1 01 Jul 02:01:24 02:05:41 33° 68° (ENE) 02:09:59 437.325
PCSat 01 Jul 02:09:54 02:15:18 76° 117° (ESE) 02:20:45 145.827
Oscar 19 01 Jul 02:21:40 02:26:39 49° 100° (E) 02:31:37 437.125/150
BEESAT 2 01 Jul 02:25:00 02:28:38 36° 116° (ESE) 02:32:19 435.950
Cosmos 2491 01 Jul 02:47:45 02:54:57 28° 293° (WNW) 03:02:11 435.465 / 435.565
ITAMSAT 1 01 Jul 02:51:45 02:54:27 14° 90° (E) 02:57:08 435.822/435.867
Gurwin Techsat 1B 01 Jul 02:59:43 03:04:53 49° 100° (E) 03:10:02 435.225
Cosmos 2504 01 Jul 03:00:08 03:07:43 34° 277° (W) 03:15:02 435.465 / 435.565
O/OREOS (USA 219) 01 Jul 03:10:27 03:14:53 61° 294° (WNW) 03:19:20 437.305
SWISSCUBE 01 Jul 03:10:58 03:15:31 44° 261° (W) 03:20:08 437.505
BEESAT 3 01 Jul 03:19:37 03:23:09 31° 310° (NW) 03:26:42 437.485
BEESAT 01 Jul 03:36:35 03:40:39 27° 264° (W) 03:44:44 436.000
ITUPSAT 1 01 Jul 03:39:30 03:43:31 26° 265° (W) 03:47:34 437.325
JAS-2 01 Jul 03:40:16 03:43:12 15° 303° (WNW) 03:46:02 435.910
KKS-1 01 Jul 03:41:22 03:45:31 42° 71° (ENE) 03:49:42 437.445
GONETS M04 01 Jul 03:43:43 03:46:33 12° 55° (NE) 03:49:21
MOZHAYETS 4 01 Jul 03:50:57 03:55:23 48° 72° (ENE) 03:59:52
PCSat 01 Jul 03:55:28 03:59:18 19° 316° (NW) 04:03:09 145.827
Oscar 19 01 Jul 04:01:52 04:05:37 21° 296° (WNW) 04:09:21 437.125/150
BEESAT 2 01 Jul 04:03:26 04:06:34 22° 314° (NW) 04:09:44 435.950
STARS 01 Jul 04:06:12 04:10:14 39° 71° (ENE) 04:14:18 437.465
AIST 1 01 Jul 04:09:33 04:13:43 50° 80° (E) 04:17:51
ITAMSAT 1 01 Jul 04:29:11 04:34:25 70° 287° (WNW) 04:39:35 435.822/435.867
AO-7 01 Jul 04:31:22 04:39:25 48° 101° (E) 04:47:23 29.400- 29.500
Gurwin Techsat 1B 01 Jul 04:40:28 04:44:28 22° 296° (WNW) 04:48:29 435.225
HORYU 2 01 Jul 04:59:00 05:01:20 14° 91° (E) 05:03:39 437.375
AIST 2 01 Jul 05:07:08 05:11:14 76° 304° (NW) 05:15:23 435.215
AO-85 01 Jul 05:09:49 05:13:24 22° 43° (NE) 05:16:45 145.980
KKS-1 01 Jul 05:19:17 05:22:16 18° 267° (W) 05:25:16 437.445
CUBESAT XI-V 01 Jul 05:25:51 05:30:27 56° 73° (ENE) 05:35:03 437.345
MOZHAYETS 4 01 Jul 05:29:47 05:32:48 17° 268° (W) 05:35:50
Cosmos 2499 01 Jul 05:34:29 05:42:40 42° 72° (ENE) 05:50:20 435.465 / 435.565
GONETS M04 01 Jul 05:36:48 05:45:27 62° 78° (ENE) 05:54:05
STARS 01 Jul 05:43:41 05:46:44 19° 266° (W) 05:49:49 437.465
AIST 1 01 Jul 05:48:56 05:50:48 13° 275° (W) 05:52:41
PHONESAT 2.4 01 Jul 06:04:04 06:06:40 25° 156° (SSE) 06:09:17 2401.200-2431.200
NOAA 15 01 Jul 06:10:20 06:13:43 17° 92° (E) 06:17:04 137.62
STRAND 1 01 Jul 06:18:14 06:21:28 17° 61° (ENE) 06:24:43 437.568
LilacSat-2 01 Jul 06:19:53 06:20:44 11° 90° (E) 06:21:35 437.200
AO-7 01 Jul 06:24:23 06:32:00 41° 300° (WNW) 06:39:35 29.400- 29.500
BRITE-PL 01 Jul 06:25:05 06:28:09 20° 94° (E) 06:31:16 437.365/2234.400
HORYU 2 01 Jul 06:33:48 06:38:13 56° 287° (WNW) 06:42:37 437.375
GOMX 1 01 Jul 06:44:40 06:47:07 15° 92° (E) 06:49:38 467.674
CUSAT 1 01 Jul 06:48:28 06:55:02 33° 92° (E) 07:00:40 437.405
AIST 2 01 Jul 06:49:15 06:50:26 11° 322° (NW) 06:51:38 435.215
AO-85 01 Jul 06:49:52 06:54:08 45° 244° (WSW) 06:58:02 145.980
Cubesat XI-IV 01 Jul 06:56:37 07:01:30 34° 97° (E) 07:06:21 437.490
CUBESAT XI-V 01 Jul 07:05:32 07:08:10 15° 269° (W) 07:10:48 437.345
NOAA 18 01 Jul 07:13:52 07:19:18 52° 101° (E) 07:24:42 137.9125
Cosmos 2499 01 Jul 07:27:43 07:35:46 43° 273° (W) 07:43:21 435.465 / 435.565
DOVE 4 01 Jul 07:29:43 07:33:10 22° 95° (E) 07:36:43 437.250
CUTE-I 01 Jul 07:29:44 07:35:07 70° 102° (ESE) 07:40:28 437.470
ISS 01 Jul 07:33:11 07:35:53 24° 135° (SE) 07:38:37 145.825
GONETS M04 01 Jul 07:34:35 07:41:37 29° 278° (W) 07:48:42
DANDE 01 Jul 07:36:01 07:43:43 42° 91° (E) 07:50:44 436.750
PHONESAT 2.4 01 Jul 07:39:59 07:43:02 70° 173° (S) 07:46:05 2401.200-2431.200
NOAA 15 01 Jul 07:48:42 07:53:52 59° 288° (WNW) 07:58:59 137.62
LilacSat-2 01 Jul 07:51:33 07:55:21 54° 286° (WNW) 07:59:09 437.200
STRAND 1 01 Jul 07:55:01 08:00:06 64° 258° (WSW) 08:05:15 437.568
BRITE-PL 01 Jul 08:03:04 08:06:45 31° 289° (WNW) 08:10:29 437.365/2234.400
CINEMA 3 01 Jul 08:04:51 08:07:45 16° 92° (E) 08:10:42 145.822/145.860
CANX-2 01 Jul 08:10:05 08:12:45 16° 92° (E) 08:15:22 2200.000
GOMX 1 01 Jul 08:21:23 08:25:26 46° 287° (WNW) 08:29:41 467.674
SEEDS 01 Jul 08:28:12 08:30:45 15° 92° (E) 08:33:16 437.485
CUTE 1.7 + AOD 2 01 Jul 08:28:55 08:32:18 22° 94° (E) 08:35:39 437.475
CUSAT 1 01 Jul 08:29:45 08:36:58 46° 283° (WNW) 08:43:00 437.405
HO-68 01 Jul 08:35:17 08:41:49 36° 97° (E) 08:48:18 435.675
Cubesat XI-IV 01 Jul 08:36:47 08:41:29 31° 294° (WNW) 08:46:10 437.490
PRISM 01 Jul 08:47:39 08:51:47 74° 75° (ENE) 08:55:56 437.425
NOAA 18 01 Jul 08:55:21 08:59:34 23° 298° (WNW) 09:03:47 137.9125
AAUSAT CUBESAT 2 01 Jul 08:58:32 09:01:30 19° 93° (E) 09:04:25 437.432
DOVE 4 01 Jul 09:06:57 09:10:55 34° 289° (WNW) 09:15:05 437.250
ISS 01 Jul 09:09:06 09:12:13 39° 331° (NNW) 09:15:19 145.825
CUTE-I 01 Jul 09:11:16 09:14:34 17° 300° (WNW) 09:17:51 437.470
PHONESAT 2.4 01 Jul 09:16:32 09:19:35 67° 189° (S) 09:22:38 2401.200-2431.200
PCSat 01 Jul 09:16:36 09:18:38 12° 36° (NE) 09:20:38 145.827
CUBEBUG 2 01 Jul 09:18:09 09:22:14 29° 96° (E) 09:26:21 437.445
DANDE 01 Jul 09:18:33 09:26:29 45° 285° (WNW) 09:33:39 436.750
ZACube-1 01 Jul 09:32:07 09:35:21 19° 93° (E) 09:38:33 437.345
COMPASS 1 01 Jul 09:34:42 09:38:52 62° 101° (E) 09:42:59 437.405
ANTELSAT 01 Jul 09:35:20 09:38:04 17° 64° (ENE) 09:40:52 437.575/2403.000
Oscar 11 01 Jul 09:36:11 09:39:26 20° 93° (E) 09:42:40 145.826/435.025
CINEMA 3 01 Jul 09:40:39 09:45:07 52° 286° (WNW) 09:49:46 145.822/145.860
CANX-2 01 Jul 09:44:44 09:48:49 43° 288° (WNW) 09:52:51 2200.000
FUNcube-1 01 Jul 09:47:34 09:51:22 25° 95° (E) 09:55:09 145.935
AUBIESAT-1 01 Jul 09:53:49 09:57:13 25° 102° (ESE) 10:00:47 437.475
UWE-3 01 Jul 09:58:56 10:03:29 54° 100° (E) 10:08:03 435.000/436.395/437.385
BEESAT 3 01 Jul 09:59:38 10:02:15 17° 44° (NE) 10:04:53 437.485
RS-15 01 Jul 10:00:51 10:08:00 19° 97° (E) 10:15:19 29.354- 29.394
SEEDS 01 Jul 10:02:37 10:06:40 43° 288° (WNW) 10:10:39 437.485
CUTE 1.7 + AOD 2 01 Jul 10:04:23 10:08:09 31° 290° (WNW) 10:11:54 437.475
DELFI C3 01 Jul 10:20:00 10:23:22 26° 95° (E) 10:26:43 145.870
HUMSAT D 01 Jul 10:20:03 10:22:03 13° 90° (E) 10:24:04 437.325/437.525
HO-68 01 Jul 10:22:51 10:29:36 45° 294° (WNW) 10:36:20 435.675
TIGRISAT 01 Jul 10:24:18 10:28:28 50° 73° (ENE) 10:32:45 435.000
QB50P2 01 Jul 10:29:13 10:30:08 11° 62° (ENE) 10:31:05 145.880/145.840
UNISAT 6 01 Jul 10:30:21 10:34:37 63° 74° (ENE) 10:39:01 437.425
POLYITAN 1 01 Jul 10:31:41 10:32:46 11° 62° (ENE) 10:33:51 437.675
AAUSAT CUBESAT 2 01 Jul 10:33:17 10:37:05 35° 289° (WNW) 10:40:50 437.432
M-CUBED/EXP-1 PRIME 01 Jul 10:35:17 10:39:17 89° 290° (WNW) 10:43:36 437.505
BEESAT 2 01 Jul 10:43:03 10:46:22 24° 47° (NE) 10:49:40 435.950
ISS 01 Jul 10:47:21 10:49:20 15° 351° (N) 10:51:18 145.825
PHONESAT 2.4 01 Jul 10:53:23 10:55:56 24° 205° (SSW) 10:58:27 2401.200-2431.200
CUBEBUG 2 01 Jul 10:54:47 10:58:45 29° 291° (WNW) 11:02:48 437.445
PCSat 01 Jul 10:57:49 11:03:12 59° 57° (ENE) 11:08:32 145.827
Cosmos 2491 01 Jul 10:59:37 11:07:12 32° 69° (ENE) 11:14:44 435.465 / 435.565
ZACube-1 01 Jul 11:07:28 11:11:48 43° 288° (WNW) 11:16:07 437.345
BUGSAT 1 01 Jul 11:10:07 11:11:01 11° 62° (ENE) 11:11:56 437.445
COMPASS 1 01 Jul 11:12:16 11:13:53 12° 297° (WNW) 11:15:30 437.405
